STARLINK-36677

Last updated on Sun Apr 12 2026 00:02:06 GMT+0000 (Coordinated Universal Time)

1 68178U 26050M 26101.50002315 -.01873328 00000+0 -15487-1 0 9998 2 68178 53.1594 117.3642 0000875 73.7590 307.5640 15.72956086 5711
UTC large
Height (km)
Speed (km/s)
/
Latitude / Longitude
Inclination (degrees)
Orbital Period (minutes)
Azimuth
Elevation
Range (km)
Doppler Factor

Next 0 passes for location: London (51.5072 / 0.1276)

Sorry there are no passes over London.
STARLINK-36677